Tracking 29892 objects as of 21-Nov-2024
HD Live streaming from Space Station
objects crossing your sky now

STARLINK-3831

Track STARLINK-3831 now!
10-day predictions
STARLINK-3831 is classified as:


NORAD ID: 52332
Int'l Code: 2022-045B
Perigee: 546.0 km
Apogee: 547.7 km
Inclination: 53.2 °
Period: 95.4 minutes
Semi major axis: 6917 km
RCS: Unknown
Launch date: April 29, 2022
Source: United States (US)
Launch site: AIR FORCE EASTERN TEST RANGE (AFETR)
Your satellite tracking list
Your tracking list is empty




NASA's NSSDC Master Catalog

Two Line Element Set (TLE):
1 52332U 22045B   24325.57933405  .00001852  00000-0  13444-3 0  9995
2 52332  53.2122 177.4899 0001238  91.5968 268.5166 15.08839671144066
Source of the keplerian elements: AFSPC